[[{"header":{"parameterUnit":"m.s-1","parameterCategory":1,"la1":30.2991,"la2":30.254,"lo1":-89.0895,"lo2":-89.0444,"dy":0.0017,"dx":0.0017,"nx":28,"ny":28,"refTime":"2024-05-16T21:00:00:Z","depth":0,"parameterNumber":2,"parameterNumberName":"U-component_of_WINDS"},"data":[0,0,0,0,0,0,0,0,0,0,0,0,0,0,0,0,0,0,0,0,0,0,0,0,0,0,0,0,0,0,0,0,0,0,0,0,0,0,0,0,0,0,0,0,0,0,0,0,0,0,0,0,0,0,0,0,0,0,-0.7971,-0.7971,0,-0.7978,-0.7978,-0.7979,-0.8019,-0.802,-0.8021,-0.8021,-0.8026,-0.8026,-0.8025,0,0,0,0,0,0,0,0,0,0,0,0,0,-0.7988,-0.7988,-0.7971,-0.7971,-0.7971,-0.7978,-0.7978,-0.7979,-0.8018,-0.802,-0.8021,-0.8022,-0.8027,-0.8026,-0.8025,0,0,0,0,0,0,0,0,0,0,0,0,0,-0.7987,-0.7988,-0.7971,-0.7992,-0.7994,-0.7978,-0.7978,-0.7979,-0.8018,-0.802,-0.8021,-0.8022,-0.8027,-0.8026,-0.8025,-0.7989,0,0,-0.8021,-0.8021,0,0,0,0,0,0,0,0,-0.7987,-0.7986,-0.7989,-0.7991,-0.7993,-0.7999,-0.7986,-0.7982,-0.8018,-0.8009,-0.8021,-0.8023,-0.8016,-0.8016,-0.8014,-0.7989,-0.7989,-0.8021,-0.802,-0.802,-0.8019,0,0,0,0,0,0,0,-0.7987,-0.7986,-0.7974,-0.7989,-0.7991,-0.8,-0.8001,-0.7986,-0.8004,-0.801,-0.8013,-0.8013,-0.8017,-0.8015,-0.8014,-0.7989,-0.8021,-0.802,-0.8019,-0.8019,-0.7933,-0.7931,0,0,0,0,0,0,-0.7984,-0.7986,-0.7974,-0.7974,-0.7993,-0.7999,-0.8,-0.7996,-0.8004,-0.8007,-0.8012,-0.8015,-0.8016,-0.8016,-0.8015,-0.7971,-0.802,-0.8019,-0.8018,-0.7934,-0.7932,-0.7931,0,0,0,0,0,0,-0.7985,-0.7983,-0.7973,-0.7981,-0.798,-0.7997,-0.7991,-0.7995,-0.7993,-0.8006,-0.8009,-0.8006,-0.8017,-0.8016,-0.7994,-0.7972,-0.8018,-0.8017,-0.7936,-0.7934,-0.7931,-0.7885,0,0,0,0,0,0,-0.7985,-0.7983,-0.797,-0.798,-0.798,-0.7954,-0.799,-0.7994,-0.7991,-0.7995,-0.8002,-0.8004,-0.8018,-0.7996,-0.7993,-0.7971,-0.8016,-0.7938,-0.7935,-0.7932,-0.7888,-0.7881,-0.7875,0,0,0,0,0,-0.7985,-0.7956,-0.7969,-0.7967,-0.7964,-0.7952,-0.7952,-0.797,-0.7989,-0.7975,-0.7984,-0.8004,-0.7975,-0.7993,-0.7991,-0.7968,-0.794,-0.7936,-0.7932,-0.7891,-0.7882,-0.7875,0,0,0,0,0,0,-0.7942,-0.7958,-0.7972,-0.7946,-0.7948,-0.7959,-0.7943,-0.796,-0.7956,-0.7959,-0.7981,-0.7982,-0.7956,-0.7961,-0.798,-0.7932,-0.7961,-0.7956,-0.793,-0.7922,-0.7916,-0.7914,-0.8015,0,0,0,0,0,-0.793,-0.792,-0.7934,-0.7909,-0.791,-0.7926,-0.7922,-0.7935,-0.7937,-0.7938,-0.7945,-0.7945,-0.7936,-0.793,-0.7923,-0.789,-0.7891,-0.7873,-0.7866,-0.786,-0.7856,-0.7836,-0.7828,-0.7919,-0.7919,-0.7919,0,0,-0.7904,-0.7911,-0.7903,-0.7901,-0.7904,-0.7892,-0.7926,-0.7912,-0.7903,-0.7936,-0.7915,-0.792,-0.7922,-0.7894,-0.7882,-0.7896,-0.7831,-0.7856,-0.7851,-0.785,-0.7832,-0.7823,-0.7815,-0.7916,-0.7917,-0.7917,0,0,-0.7849,-0.7855,-0.7834,-0.7836,-0.784,-0.7852,-0.7846,-0.7855,-0.786,-0.784,-0.7864,-0.7853,-0.7837,-0.7837,-0.7835,-0.778,-0.7797,-0.7777,-0.7741,-0.7722,-0.7715,-0.7708,-0.7686,-0.7678,-0.7773,-0.7773,-0.7773,0,-0.7816,-0.78,-0.7821,-0.7805,-0.7802,-0.7832,-0.781,-0.7811,-0.7812,-0.7809,-0.7826,-0.7806,-0.781,-0.7781,-0.7767,-0.7766,-0.7759,-0.7775,-0.7714,-0.7708,-0.7703,-0.7682,-0.7674,-0.777,-0.777,-0.7771,-0.7771,0,-0.7757,-0.7745,-0.7728,-0.7728,-0.7724,-0.7705,-0.7723,-0.7716,-0.7729,-0.7738,-0.7716,-0.7722,-0.7715,-0.771,-0.7724,-0.7682,-0.7691,-0.7711,-0.7739,-0.7691,-0.7671,-0.7664,-0.7766,-0.7767,-0.7768,-0.7769,0,0,-0.7674,-0.7687,-0.768,-0.768,-0.7687,-0.7678,-0.766,-0.7654,-0.7646,-0.7646,-0.763,-0.7616,-0.7634,-0.7631,-0.7645,-0.7629,-0.7582,-0.765,-0.7651,-0.7635,-0.7534,-0.7517,-0.7508,-0.7595,-0.7593,-0.7592,-0.7533,0,-0.7621,-0.7591,-0.761,-0.7577,-0.7565,-0.7593,-0.7577,-0.7579,-0.7586,-0.7577,-0.7585,-0.7574,-0.76,-0.7598,-0.7583,-0.7591,-0.7561,-0.7596,-0.7577,-0.7576,-0.7573,-0.7498,-0.7481,-0.7425,-0.7526,-0.7525,-0.7524,0,-0.7554,-0.7551,-0.7516,-0.7524,-0.752,-0.7505,-0.7501,-0.7492,-0.7493,-0.75,-0.7497,-0.7515,-0.7496,-0.7526,-0.7499,-0.7522,-0.7516,-0.7518,-0.7516,-0.7513,-0.7545,-0.7491,-0.7408,-0.7399,-0.7513,-0.7514,-0.7514,0,-0.7494,-0.7481,-0.7459,-0.7458,-0.7467,-0.7456,-0.7459,-0.7463,-0.7457,-0.7453,-0.745,-0.7443,-0.7439,-0.7433,-0.7447,-0.7468,-0.7418,-0.7449,-0.7421,-0.742,-0.7407,-0.7407,-0.7319,-0.7407,-0.7407,-0.7407,-0.7407,0,-0.743,-0.7407,-0.7432,-0.7418,-0.7393,-0.7414,-0.7388,-0.7394,-0.7397,-0.7383,-0.7408,-0.7394,-0.7416,-0.7404,-0.7415,-0.739,-0.7388,-0.7392,-0.7394,-0.7388,-0.7387,-0.7382,-0.7385,-0.7405,-0.7406,-0.7406,-0.7406,0,-0.7358,-0.7374,-0.7351,-0.7361,-0.7363,-0.7344,-0.7353,-0.7339,-0.7349,-0.7331,-0.7328,-0.7343,-0.733,-0.7345,-0.7333,-0.7341,-0.7305,-0.7315,-0.7305,-0.7306,-0.7276,-0.7278,-0.718,-0.7167,-0.7266,-0.7265,-0.7264,0,-0.7315,-0.7298,-0.7307,-0.73,-0.7302,-0.7291,-0.7285,-0.7306,-0.7299,-0.7299,-0.7285,-0.7275,-0.7267,-0.7245,-0.7253,-0.7244,-0.7252,-0.7219,-0.7251,-0.7244,-0.7248,-0.7248,-0.7245,-0.7211,-0.721,-0.7209,-0.7208,0,-0.7236,-0.7245,-0.7237,-0.7232,-0.7225,-0.7221,-0.722,-0.7212,-0.7233,-0.7224,-0.7212,-0.7206,-0.7194,-0.7182,-0.7175,-0.7177,-0.7195,-0.7199,-0.7191,-0.7183,-0.7176,-0.7177,-0.7284,-0.72,-0.7201,-0.7201,-0.7202,-0.7202,-0.7176,-0.7162,-0.7165,-0.7155,-0.7156,-0.7154,-0.7141,-0.7149,-0.714,-0.7132,-0.7144,-0.7128,-0.7129,-0.7121,-0.7121,-0.7107,-0.7121,-0.7111,-0.7108,-0.7104,-0.7098,-0.7181,-0.7106,-0.7107,-0.7107,-0.7107,-0.7107,0,-0.7096,-0.71,-0.7091,-0.7088,-0.7079,-0.7099,-0.7098,-0.7089,-0.7074,-0.7074,-0.7066,-0.7051,-0.7039,-0.7047,-0.7037,-0.7024,-0.7032,-0.7021,-0.702,-0.702,-0.7088,-0.7094,-0.7014,-0.7014,-0.7014,-0.7014,-0.7014,-0.7014,-0.7054,-0.703,-0.7039,-0.7015,-0.7019,-0.7004,-0.7001,-0.6998,-0.6998,-0.6979,-0.697,-0.6976,-0.6978,-0.6968,-0.6958,-0.6961,-0.6954,-0.6939,-0.6944,-0.7007,-0.7016,-0.7024,-0.703,-0.6938,-0.6938,-0.6877,-0.6877,-0.6876]},{"header":{"parameterUnit":"m.s-1","parameterCategory":1,"la1":30.2991,"la2":30.254,"lo1":-89.0895,"lo2":-89.0444,"dy":0.0017,"dx":0.0017,"nx":28,"ny":28,"refTime":"2024-05-16T21:00:00:Z","depth":0,"parameterNumber":3,"parameterNumberName":"V-component_of_WINDS"},"data":[0,0,0,0,0,0,0,0,0,0,0,0,0,0,0,0,0,0,0,0,0,0,0,0,0,0,0,0,0,0,0,0,0,0,0,0,0,0,0,0,0,0,0,0,0,0,0,0,0,0,0,0,0,0,0,0,0,0,4.1463,4.1464,0,4.1554,4.1555,4.1556,4.1571,4.157,4.1569,4.1568,4.1665,4.1668,4.1672,0,0,0,0,0,0,0,0,0,0,0,0,0,4.1307,4.131,4.1463,4.1464,4.1465,4.1554,4.1555,4.1556,4.1571,4.157,4.1569,4.1568,4.1664,4.1668,4.1672,0,0,0,0,0,0,0,0,0,0,0,0,0,4.1384,4.1311,4.1463,4.1483,4.1486,4.1554,4.1555,4.1557,4.1571,4.157,4.1569,4.1567,4.1663,4.1667,4.1672,4.1727,0,0,4.1688,4.169,0,0,0,0,0,0,0,0,4.138,4.139,4.1479,4.1482,4.1485,4.155,4.1536,4.1614,4.1571,4.1539,4.1568,4.1567,4.1628,4.1636,4.1655,4.1732,4.1736,4.1688,4.1691,4.1693,4.1695,0,0,0,0,0,0,0,4.1375,4.1386,4.1499,4.148,4.1484,4.1489,4.1499,4.1551,4.1589,4.1542,4.1543,4.1553,4.1629,4.1651,4.1658,4.1737,4.1688,4.1692,4.1695,4.1697,4.1868,4.1869,0,0,0,0,0,0,4.1365,4.1382,4.1496,4.1502,4.1428,4.1493,4.1504,4.153,4.1589,4.1596,4.1554,4.1554,4.1643,4.1652,4.1661,4.1732,4.1693,4.1698,4.1701,4.1866,4.1868,4.187,0,0,0,0,0,0,4.1362,4.1375,4.1493,4.1442,4.1458,4.1497,4.1527,4.1533,4.1554,4.1598,4.1605,4.1568,4.1642,4.1654,4.1711,4.1736,4.17,4.1705,4.1864,4.1867,4.1869,4.1873,0,0,0,0,0,0,4.1357,4.1374,4.1393,4.1442,4.146,4.1539,4.1528,4.1535,4.1562,4.1562,4.1613,4.1621,4.1642,4.1704,4.1716,4.1742,4.1709,4.1862,4.1865,4.1868,4.187,4.1875,4.1878,0,0,0,0,0,4.1351,4.1391,4.1394,4.1408,4.1486,4.1541,4.1551,4.1574,4.1564,4.1585,4.1614,4.1619,4.1731,4.171,4.1724,4.1751,4.1861,4.1865,4.1868,4.1869,4.1874,4.1878,0,0,0,0,0,0,4.1344,4.1398,4.1402,4.1458,4.1495,4.1543,4.1571,4.1578,4.1619,4.1617,4.1645,4.1656,4.1713,4.1738,4.1713,4.1809,4.1795,4.1802,4.1791,4.1796,4.18,4.1794,4.1713,0,0,0,0,0,4.1349,4.1388,4.1433,4.1478,4.1497,4.153,4.1555,4.157,4.1609,4.1625,4.1658,4.1697,4.1742,4.177,4.1813,4.1874,4.1887,4.19,4.1904,4.1907,4.1913,4.195,4.1957,4.1881,4.1881,4.1881,0,0,4.136,4.1394,4.1417,4.1478,4.1508,4.155,4.1543,4.1587,4.1619,4.1632,4.1688,4.1714,4.176,4.182,4.1848,4.1843,4.1937,4.1911,4.1913,4.1918,4.1954,4.1962,4.1968,4.1883,4.1883,4.1883,0,0,4.1401,4.1429,4.1472,4.1502,4.1548,4.1571,4.1581,4.1629,4.1646,4.1703,4.1714,4.1754,4.1828,4.1862,4.1888,4.1945,4.1953,4.1958,4.1979,4.2016,4.2022,4.2027,4.205,4.2058,4.1964,4.1964,4.1964,0,4.1409,4.1471,4.1493,4.1537,4.1565,4.1578,4.1623,4.1652,4.1709,4.1729,4.1722,4.1818,4.185,4.1919,4.1933,4.1953,4.1968,4.1953,4.2019,4.2024,4.203,4.2052,4.2061,4.1964,4.1964,4.1964,4.1964,0,4.148,4.1523,4.1552,4.1607,4.1638,4.1682,4.1713,4.1743,4.1755,4.1779,4.1839,4.1877,4.193,4.1947,4.1959,4.202,4.2015,4.2013,4.2,4.2037,4.2059,4.2068,4.1965,4.1965,4.1965,4.1965,0,0,4.1519,4.1587,4.1597,4.1624,4.1676,4.1711,4.1757,4.1808,4.1834,4.1873,4.1915,4.1979,4.1978,4.2008,4.2024,4.2056,4.2102,4.205,4.2052,4.2061,4.2175,4.2178,4.2187,4.2107,4.2109,4.211,4.2172,0,4.1568,4.1649,4.1672,4.1741,4.1783,4.1797,4.1838,4.1876,4.19,4.1941,4.1968,4.2015,4.2008,4.2027,4.2059,4.209,4.2126,4.2085,4.2148,4.215,4.2138,4.2198,4.2201,4.2257,4.218,4.2182,4.2183,0,4.1636,4.1678,4.1751,4.1801,4.1819,4.1855,4.1905,4.1943,4.1987,4.2003,4.2038,4.2052,4.2103,4.2087,4.216,4.2132,4.2159,4.2178,4.2181,4.2189,4.217,4.221,4.2275,4.2285,4.2196,4.2195,4.2194,0,4.1661,4.1735,4.1789,4.1811,4.1869,4.1895,4.1921,4.1964,4.1994,4.2038,4.2058,4.2107,4.2135,4.2174,4.2203,4.2187,4.2275,4.2259,4.2292,4.2291,4.231,4.2309,4.2383,4.2324,4.2324,4.2324,4.2324,0,4.1715,4.176,4.1801,4.1835,4.1887,4.1913,4.1965,4.1992,4.203,4.2071,4.2086,4.2125,4.2159,4.2203,4.2225,4.2284,4.2296,4.2312,4.2318,4.2312,4.231,4.2332,4.2329,4.2326,4.2326,4.2325,4.2325,0,4.1751,4.178,4.1841,4.1892,4.1906,4.1942,4.1987,4.2021,4.2046,4.2098,4.2112,4.2153,4.2205,4.2237,4.2304,4.2319,4.2385,4.2388,4.237,4.2373,4.2405,4.2402,4.2497,4.2512,4.244,4.2441,4.2441,0,4.1785,4.182,4.1875,4.1903,4.1929,4.1974,4.2005,4.2032,4.2064,4.2119,4.2148,4.2201,4.2246,4.233,4.2366,4.2419,4.2425,4.2454,4.2433,4.2426,4.2428,4.2427,4.2432,4.2458,4.2459,4.2459,4.246,0,4.1842,4.1855,4.1898,4.1948,4.1984,4.2024,4.2064,4.2087,4.2122,4.2158,4.2211,4.2246,4.2315,4.2369,4.2424,4.2453,4.2464,4.2466,4.2477,4.2472,4.2461,4.247,4.2382,4.2464,4.2464,4.2463,4.2463,4.2463,4.188,4.1913,4.1958,4.2006,4.2039,4.2077,4.2113,4.2143,4.2188,4.2245,4.2259,4.2316,4.2363,4.2439,4.2469,4.2516,4.2512,4.2526,4.2531,4.2534,4.2537,4.2452,4.2526,4.2526,4.2526,4.2526,4.2526,0,4.1941,4.197,4.2014,4.207,4.2109,4.2114,4.2159,4.2192,4.2242,4.2284,4.2327,4.2391,4.2444,4.2485,4.254,4.257,4.2577,4.2584,4.2584,4.2591,4.2536,4.2522,4.2578,4.2578,4.2578,4.2578,4.2578,4.2578,4.1977,4.2034,4.2053,4.2128,4.2157,4.2213,4.2239,4.2275,4.2309,4.2378,4.2422,4.2448,4.2491,4.255,4.26,4.2611,4.2632,4.2639,4.2651,4.26,4.2594,4.2589,4.2576,4.2643,4.2643,4.2703,4.2703,4.2704]}]]